| time (UTC) | temp F | wind direction | speed MPH | gust MPH | rain 1hr in | rain 24hr in | rain mn in | humidity % | barometer mb |
| 20260506154018 | 61 | 203 | 11.0 | 20.0 | 0.00 | 0.01 | 0.00 | 51 | 1009.0 |
| 20260506153018 | 61 | 203 | 12.0 | 23.0 | 0.00 | 0.01 | 0.00 | 50 | 1009.0 |
| 20260506152018 | 62 | 203 | 10.0 | 19.0 | 0.00 | 0.01 | 0.00 | 50 | 1009.0 |
| 20260506151018 | 62 | 203 | 10.0 | 21.0 | 0.00 | 0.01 | 0.00 | 49 | 1009.1 |
| 20260506150017 | 61 | 203 | 12.0 | 22.0 | 0.00 | 0.01 | 0.00 | 51 | 1009.0 |
| 20260506145018 | 62 | 203 | 10.0 | 18.0 | 0.00 | 0.01 | 0.00 | 50 | 1009.2 |
| 20260506144017 | 61 | 225 | 10.0 | 19.0 | 0.00 | 0.01 | 0.00 | 51 | 1009.2 |
| 20260506143017 | 61 | 203 | 9.0 | 18.0 | 0.00 | 0.01 | 0.00 | 53 | 1009.4 |
| 20260506142017 | 61 | 203 | 10.0 | 18.0 | 0.00 | 0.01 | 0.00 | 53 | 1009.6 |
| 20260506141017 | 61 | 203 | 8.0 | 16.0 | 0.00 | 0.01 | 0.00 | 53 | 1009.7 |
| 20260506140018 | 61 | 203 | 8.0 | 19.0 | 0.00 | 0.01 | 0.00 | 52 | 1009.7 |
| 20260506135037 | 61 | 203 | 8.0 | 19.0 | 0.00 | 0.01 | 0.00 | 51 | 1009.8 |
| 20260506134117 | 60 | 203 | 8.0 | 16.0 | 0.00 | 0.01 | 0.00 | 51 | 1009.9 |
| 20260506133037 | 60 | 203 | 8.0 | 18.0 | 0.00 | 0.01 | 0.00 | 52 | 1010.0 |
| 20260506132017 | 60 | 203 | 7.0 | 15.0 | 0.00 | 0.01 | 0.00 | 52 | 1010.0 |
| 20260506131017 | 60 | 180 | 7.0 | 16.0 | 0.00 | 0.01 | 0.00 | 53 | 1010.1 |
| 20260506130017 | 59 | 180 | 8.0 | 19.0 | 0.00 | 0.01 | 0.00 | 55 | 1010.1 |
| 20260506125017 | 59 | 180 | 8.0 | 15.0 | 0.00 | 0.01 | 0.00 | 55 | 1010.2 |
| 20260506124017 | 59 | 180 | 7.0 | 13.0 | 0.00 | 0.01 | 0.00 | 56 | 1010.2 |
| 20260506123017 | 59 | 135 | 5.0 | 12.0 | 0.00 | 0.01 | 0.00 | 62 | 1010.3 |
| 20260506122037 | 59 | 135 | 6.0 | 10.0 | 0.00 | 0.01 | 0.00 | 61 | 1010.3 |
| 20260506121057 | 59 | 180 | 3.0 | 7.0 | 0.00 | 0.01 | 0.00 | 61 | 1010.3 |
| 20260506120037 | 59 | 158 | 4.0 | 8.0 | 0.00 | 0.01 | 0.00 | 63 | 1010.4 |
| 20260506115037 | 59 | 158 | 4.0 | 10.0 | 0.00 | 0.01 | 0.00 | 63 | 1010.4 |
| 20260506114017 | 58 | 180 | 6.0 | 11.0 | 0.00 | 0.01 | 0.00 | 64 | 1010.4 |
| 20260506113017 | 58 | 203 | 3.0 | 12.0 | 0.00 | 0.01 | 0.00 | 63 | 1010.6 |
| 20260506112017 | 57 | 158 | 3.0 | 9.0 | 0.00 | 0.01 | 0.00 | 66 | 1010.8 |
| 20260506111017 | 56 | 180 | 3.0 | 8.0 | 0.00 | 0.01 | 0.00 | 70 | 1010.7 |
| 20260506110017 | 54 | 180 | 4.0 | 9.0 | 0.00 | 0.01 | 0.00 | 72 | 1010.6 |
| 20260506105037 | 55 | 135 | 3.0 | 8.0 | 0.00 | 0.01 | 0.00 | 71 | 1010.9 |
| 20260506104017 | 54 | 203 | 2.0 | 7.0 | 0.00 | 0.01 | 0.00 | 74 | 1011.0 |
| 20260506103017 | 53 | 248 | 1.0 | 4.0 | 0.00 | 0.01 | 0.00 | 76 | 1011.0 |
| 20260506102017 | 52 | 0 | 2.0 | 4.0 | 0.00 | 0.01 | 0.00 | 77 | 1010.9 |
| 20260506101017 | 52 | 135 | 1.0 | 4.0 | 0.00 | 0.01 | 0.00 | 77 | 1011.1 |
| 20260506100037 | 51 | 135 | 2.0 | 6.0 | 0.00 | 0.01 | 0.00 | 78 | 1011.2 |
| 20260506095017 | 51 | 135 | 2.0 | 5.0 | 0.00 | 0.01 | 0.00 | 79 | 1011.3 |
| 20260506094017 | 51 | 113 | 4.0 | 10.0 | 0.00 | 0.01 | 0.00 | 78 | 1011.2 |
| 20260506093036 | 51 | 113 | 2.0 | 7.0 | 0.00 | 0.01 | 0.00 | 79 | 1011.0 |
| 20260506092017 | 51 | 135 | 3.0 | 8.0 | 0.00 | 0.01 | 0.00 | 78 | 1010.8 |
| 20260506091017 | 50 | 158 | 2.0 | 5.0 | 0.00 | 0.01 | 0.00 | 79 | 1010.7 |
| 20260506090036 | 50 | 225 | 2.0 | 7.0 | 0.00 | 0.01 | 0.00 | 78 | 1010.7 |
| 20260506085017 | 50 | 180 | 3.0 | 7.0 | 0.00 | 0.01 | 0.00 | 79 | 1010.7 |
| 20260506084017 | 50 | 180 | 2.0 | 7.0 | 0.00 | 0.01 | 0.00 | 80 | 1010.7 |
| 20260506083017 | 49 | 158 | 1.0 | 4.0 | 0.00 | 0.01 | 0.00 | 81 | 1010.5 |
| 20260506082016 | 49 | 158 | 2.0 | 6.0 | 0.00 | 0.01 | 0.00 | 82 | 1010.4 |
| 20260506081017 | 48 | 135 | 2.0 | 4.0 | 0.00 | 0.01 | 0.00 | 83 | 1010.4 |
| 20260506073038 | 47 | 158 | 2.0 | 4.0 | 0.00 | 0.01 | 0.00 | 84 | 1010.2 |
| 20260506072058 | 46 | 68 | 2.0 | 5.0 | 0.00 | 0.01 | 0.00 | 86 | 1010.1 |
| 20260506071018 | 46 | 113 | 2.0 | 6.0 | 0.00 | 0.01 | 0.00 | 88 | 1010.1 |
| 20260506062018 | 45 | 180 | 1.0 | 3.0 | 0.00 | 0.01 | 0.00 | 90 | 1010.1 |
| 20260506061018 | 45 | 158 | 2.0 | 3.0 | 0.00 | 0.01 | 0.00 | 90 | 1010.1 |
| 20260506051058 | 45 | 45 | 3.0 | 5.0 | 0.00 | 0.01 | 0.00 | 89 | 1009.6 |
| 20260506045018 | 44 | 68 | 3.0 | 5.0 | 0.00 | 0.01 | 0.00 | 89 | 1009.4 |
| 20260506044018 | 44 | 90 | 2.0 | 5.0 | 0.00 | 0.01 | 0.00 | 89 | 1009.5 |
| 20260506043018 | 44 | 90 | 2.0 | 5.0 | 0.00 | 0.01 | 0.00 | 89 | 1009.4 |
| 20260506042018 | 44 | 90 | 3.0 | 6.0 | 0.00 | 0.01 | 0.00 | 89 | 1009.4 |
| 20260506041018 | 45 | 90 | 2.0 | 5.0 | 0.00 | 0.01 | 0.00 | 89 | 1009.5 |
| 20260506040018 | 45 | 0.0 | 0.0 | 0.00 | 0.01 | 0.00 | 90 | 1009.6 | |
| 20260506035017 | 45 | 0.0 | 0.0 | 0.00 | 0.01 | 0.00 | 91 | 1009.6 | |
| 20260506034018 | 45 | 270 | 1.0 | 3.0 | 0.00 | 0.01 | 0.00 | 90 | 1009.4 |
| 20260506033038 | 44 | 0.0 | 2.0 | 0.00 | 0.01 | 0.00 | 89 | 1009.4 | |
| 20260506032017 | 45 | 113 | 1.0 | 5.0 | 0.00 | 0.01 | 0.00 | 88 | 1009.4 |
| 20260506031018 | 45 | 45 | 2.0 | 5.0 | 0.00 | 0.01 | 0.00 | 88 | 1009.3 |
| 20260506030017 | 45 | 68 | 3.0 | 6.0 | 0.00 | 0.01 | 0.00 | 88 | 1009.3 |
| 20260506025018 | 45 | 68 | 3.0 | 7.0 | 0.00 | 0.01 | 0.00 | 88 | 1009.4 |
| 20260506024017 | 46 | 68 | 3.0 | 7.0 | 0.00 | 0.01 | 0.00 | 87 | 1009.5 |
| 20260506023018 | 46 | 68 | 3.0 | 5.0 | 0.00 | 0.01 | 0.00 | 87 | 1009.4 |
| 20260506022017 | 46 | 45 | 5.0 | 7.0 | 0.00 | 0.01 | 0.00 | 87 | 1009.5 |
| 20260506021018 | 46 | 45 | 3.0 | 5.0 | 0.00 | 0.01 | 0.00 | 87 | 1009.5 |
| 20260506020017 | 46 | 0.0 | 0.0 | 0.00 | 0.01 | 0.00 | 88 | 1009.6 | |
| 20260506015018 | 46 | 45 | 1.0 | 5.0 | 0.00 | 0.01 | 0.00 | 88 | 1009.7 |
| 20260506014017 | 46 | 45 | 5.0 | 7.0 | 0.00 | 0.01 | 0.00 | 88 | 1009.6 |
| 20260506013017 | 46 | 23 | 3.0 | 6.0 | 0.00 | 0.01 | 0.00 | 87 | 1009.5 |
| 20260506012037 | 47 | 23 | 3.0 | 5.0 | 0.00 | 0.01 | 0.00 | 87 | 1009.5 |
| 20260506011017 | 47 | 45 | 4.0 | 7.0 | 0.00 | 0.01 | 0.00 | 87 | 1009.5 |
| 20260506010017 | 47 | 45 | 4.0 | 6.0 | 0.00 | 0.01 | 0.00 | 86 | 1009.6 |
| 20260506005017 | 48 | 45 | 1.0 | 4.0 | 0.00 | 0.01 | 0.00 | 87 | 1009.7 |
| 20260506004017 | 48 | 0.0 | 3.0 | 0.00 | 0.01 | 0.00 | 87 | 1009.8 | |
| 20260506003017 | 48 | 45 | 3.0 | 5.0 | 0.00 | 0.01 | 0.00 | 86 | 1009.8 |
| 20260506002017 | 48 | 68 | 3.0 | 4.0 | 0.00 | 0.01 | 0.00 | 86 | 1009.8 |
| 20260506001037 | 48 | 68 | 1.0 | 4.0 | 0.00 | 0.01 | 0.00 | 86 | 1009.9 |
| 20260506000017 | 48 | 45 | 1.0 | 3.0 | 0.00 | 0.01 | 0.01 | 86 | 1010.0 |
| 20260505235017 | 48 | 45 | 3.0 | 5.0 | 0.00 | 0.01 | 0.01 | 86 | 1009.9 |
| 20260505234017 | 48 | 45 | 4.0 | 6.0 | 0.00 | 0.01 | 0.01 | 86 | 1009.7 |
| 20260505233017 | 48 | 45 | 5.0 | 9.0 | 0.00 | 0.01 | 0.01 | 86 | 1009.7 |
| 20260505232017 | 49 | 23 | 3.0 | 8.0 | 0.00 | 0.01 | 0.01 | 84 | 1009.8 |
| 20260505231037 | 49 | 45 | 4.0 | 7.0 | 0.00 | 0.01 | 0.01 | 84 | 1009.7 |
| 20260505230017 | 49 | 45 | 3.0 | 6.0 | 0.00 | 0.01 | 0.01 | 84 | 1009.8 |
| 20260505225037 | 49 | 45 | 3.0 | 5.0 | 0.00 | 0.01 | 0.01 | 84 | 1009.9 |
| 20260505224017 | 50 | 45 | 4.0 | 7.0 | 0.00 | 0.01 | 0.01 | 84 | 1010.0 |
| 20260505223017 | 50 | 45 | 3.0 | 6.0 | 0.00 | 0.01 | 0.01 | 83 | 1010.1 |
| 20260505222017 | 50 | 68 | 3.0 | 7.0 | 0.00 | 0.01 | 0.01 | 82 | 1010.1 |
| 20260505221017 | 51 | 68 | 2.0 | 5.0 | 0.00 | 0.01 | 0.01 | 81 | 1010.5 |
| 20260505220037 | 51 | 68 | 1.0 | 3.0 | 0.00 | 0.01 | 0.01 | 80 | 1010.6 |
| 20260505215017 | 51 | 338 | 1.0 | 3.0 | 0.00 | 0.01 | 0.01 | 80 | 1010.5 |
| 20260505214017 | 51 | 45 | 3.0 | 5.0 | 0.00 | 0.01 | 0.01 | 80 | 1010.4 |
| 20260505213017 | 51 | 45 | 3.0 | 5.0 | 0.00 | 0.01 | 0.01 | 79 | 1010.4 |
| 20260505212017 | 51 | 23 | 2.0 | 5.0 | 0.00 | 0.01 | 0.01 | 78 | 1010.4 |
| 20260505211037 | 51 | 23 | 2.0 | 4.0 | 0.00 | 0.01 | 0.01 | 79 | 1010.2 |
| 20260505210017 | 51 | 338 | 1.0 | 4.0 | 0.00 | 0.01 | 0.01 | 79 | 1010.1 |
| 20260505205017 | 51 | 338 | 2.0 | 5.0 | 0.00 | 0.01 | 0.01 | 78 | 1010.0 |
| 20260505204017 | 51 | 315 | 3.0 | 5.0 | 0.00 | 0.01 | 0.01 | 79 | 1009.7 |
| 20260505203017 | 52 | 338 | 2.0 | 6.0 | 0.00 | 0.01 | 0.01 | 78 | 1009.5 |
| 20260505202057 | 52 | 0 | 2.0 | 4.0 | 0.00 | 0.02 | 0.01 | 78 | 1009.6 |
| 20260505201017 | 52 | 0 | 3.0 | 7.0 | 0.00 | 0.06 | 0.01 | 78 | 1009.1 |
| 20260505200017 | 52 | 0 | 2.0 | 4.0 | 0.00 | 0.09 | 0.01 | 78 | 1009.0 |
| 20260505195037 | 52 | 0 | 4.0 | 6.0 | 0.00 | 0.24 | 0.01 | 78 | 1008.8 |
| 20260505194017 | 52 | 0.0 | 3.0 | 0.00 | 0.28 | 0.01 | 79 | 1008.8 | |
| 20260505193017 | 53 | 0.0 | 2.0 | 0.00 | 0.28 | 0.01 | 80 | 1008.9 | |
| 20260505192016 | 52 | 158 | 1.0 | 3.0 | 0.00 | 0.28 | 0.01 | 80 | 1008.7 |
| 20260505191017 | 52 | 158 | 2.0 | 4.0 | 0.00 | 0.28 | 0.01 | 79 | 1008.7 |
| 20260505190037 | 53 | 180 | 3.0 | 6.0 | 0.00 | 0.28 | 0.01 | 79 | 1008.7 |
| 20260505185017 | 53 | 158 | 3.0 | 4.0 | 0.00 | 0.28 | 0.01 | 80 | 1008.7 |
| 20260505184016 | 53 | 158 | 3.0 | 6.0 | 0.00 | 0.28 | 0.01 | 80 | 1008.7 |
| 20260505183017 | 54 | 158 | 4.0 | 9.0 | 0.00 | 0.28 | 0.01 | 77 | 1008.8 |
| 20260505182016 | 55 | 90 | 3.0 | 7.0 | 0.00 | 0.28 | 0.01 | 72 | 1008.6 |
| 20260505181016 | 55 | 45 | 4.0 | 7.0 | 0.00 | 0.28 | 0.01 | 72 | 1008.4 |
| 20260505180016 | 55 | 45 | 4.0 | 7.0 | 0.01 | 0.28 | 0.01 | 70 | 1008.2 |
| 20260505175016 | 55 | 45 | 5.0 | 10.0 | 0.01 | 0.28 | 0.01 | 72 | 1008.1 |
| 20260505174016 | 56 | 90 | 3.0 | 7.0 | 0.01 | 0.28 | 0.01 | 70 | 1008.0 |
| 20260505173036 | 56 | 248 | 1.0 | 3.0 | 0.01 | 0.28 | 0.01 | 72 | 1008.0 |
| 20260505172018 | 55 | 203 | 4.0 | 7.0 | 0.01 | 0.28 | 0.01 | 73 | 1008.0 |
| 20260505171038 | 56 | 180 | 5.0 | 8.0 | 0.01 | 0.28 | 0.01 | 67 | 1008.2 |
| 20260505170018 | 57 | 315 | 6.0 | 16.0 | 0.00 | 0.28 | 0.00 | 60 | 1008.3 |
| 20260505165018 | 58 | 293 | 14.0 | 27.0 | 0.00 | 0.28 | 0.00 | 58 | 1008.3 |
| 20260505164018 | 60 | 203 | 7.0 | 14.0 | 0.00 | 0.28 | 0.00 | 54 | 1008.2 |
| 20260505163018 | 60 | 180 | 5.0 | 11.0 | 0.00 | 0.28 | 0.00 | 64 | 1008.0 |
| 20260505162018 | 60 | 180 | 6.0 | 12.0 | 0.00 | 0.28 | 0.00 | 67 | 1008.1 |
| 20260505161038 | 60 | 203 | 9.0 | 15.0 | 0.00 | 0.28 | 0.00 | 65 | 1008.2 |